Regional Weather Roundup
Issued by NWS Charleston, SC

Current Version | Previous Version | Graphics & Text | Print | Product List | Glossary On
Versions: 1 2 3 4 5 6 7 8 9 10 11 12 13 14 15 16 17 18 19 20 21 22 23 24 25 26 27 28 29 30 31 32 33 34 35 36 37 38 39 40 41 42 43 44 45 46 47 48 49 50
000 ASUS42 KCHS 280827 RWRCHS REGIONAL WEATHER ROUNDUP NATIONAL WEATHER SERVICE CHARLESTON SC 400 AM EDT THU MAY 28 2015 NOTE: "FAIR" INDICATES FEW OR NO CLOUDS BELOW 12,000 FEET WITH NO SIGNIFICANT WEATHER AND/OR OBSTRUCTIONS TO VISIBILITY. NOT ALL STATIONS ARE QUALITY CONTROLLED BY THE NATIONAL WEATHER SERVICE. USE DATA WITH CAUTION...ESPECIALLY DEWPOINT OBSERVATIONS. SCZ027-030-031-034>040-042>050-280900- ...SOUTHEAST SOUTH CAROLINA... CITY SKY/WX TMP DP RH WIND PRES REMARKS N CHARLESTON CLEAR 70 67 90 CALM 30.17F WATERFRONT PAR N/A 74 70 87 CALM 30.16S MOUNT PLEASANT LGT RAIN 66 66 100 CALM 30.17F JOHNS ISLAND MOSUNNY 70 66 88 CALM 30.17F PINOPOLIS N/A 72 68 88 CALM 30.09F MONCKS CORNER FAIR 66 64 94 CALM 30.18S SUMMERVILLE FAIR 64 64 100 CALM 30.19S BEAUFORT MCAS CLEAR 70 68 93 NW3 30.17F BEAUFORT ARPT FAIR 70 70 100 CALM 30.17S HILTON HEAD IS CLEAR 68 66 94 CALM 30.18S WALTERBORO SUNNY 63 61 94 CALM 30.19S ALLENDALE FAIR 66 66 100 CALM 30.17F FOG ...SOUTHERN MIDLANDS AND PEE DEE... CITY SKY/WX TMP DP RH WIND PRES REMARKS GEORGETOWN NOT AVBL KINGSTREE NOT AVBL ORANGEBURG FOG 66 64 93 CALM 30.18F VSB 3/4 BARNWELL FAIR 66 64 94 CALM 30.18F AIKEN CLOUDY 68 63 83 S3 30.22F MANNING FAIR 64 63 94 CALM 30.18F COLUMBIA PTCLDY 69 65 86 E3 30.18S SUMTER CLEAR 68 66 94 CALM 30.17F FOG FLORENCE MOCLDY 70 68 93 CALM 30.19F MYRTLE BEACH MOCLDY 73 64 73 SE7 30.21S N MYRTLE BEACH PTCLDY 73 65 75 SE3 30.19F $$ GAZ063-065-086>088-099>101-113>116-118-119-134>141-150-280900- ...SOUTHEAST GEORGIA... CITY SKY/WX TMP DP RH WIND PRES REMARKS SAVANNAH ARPT CLEAR 67 65 93 CALM 30.17F HUNTER AAF CLEAR 68 68 100 N1 30.14F FORT STEWART PTCLDY 64 63 94 CALM 30.14F STATESBORO CLEAR 65 32 29 CALM 30.17F SYLVANIA SUNNY 66 66 100 CALM 30.18F CLAXTON FAIR 63 63 100 CALM 30.17S ...CSRA...CENTRAL AND FAR SOUTHEAST GEORGIA... CITY SKY/WX TMP DP RH WIND PRES REMARKS THOMSON CLOUDY 71 71 100 CALM 30.22F AUGUSTA-BUSH MOCLDY 69 67 93 CALM 30.17F AUGUSTA-DANIEL CLOUDY 73 65 75 S3 30.19S SWAINSBORO FAIR N/A N/A N/A CALM 30.18F VIDALIA CLEAR 66 64 94 CALM 30.17S EASTMAN FAIR 68 68 100 CALM 30.18F HAZLEHURST FAIR 69 68 98 CALM 30.15S ALMA CLEAR 65 63 93 CALM 30.15F WAYCROSS CLEAR 67 67 100 CALM 30.15F JESUP FAIR 66 64 94 CALM 30.16S BAXLEY FAIR 68 64 88 CALM 30.15F BRUNSWICK N/A 64 63 94 CALM 30.16S VSB 3/4 SAINT SIMONS NOT AVBL $$ SCZ027-028-034-036>038-045-046-048>050-GAZ119-141-280900- ...LAKE AND SUPPLEMENTAL COASTAL OBSERVATIONS... STATION/POSITION TIME TEMP WIND PRES WAVE SWELL AIR SEA DIR/SP/G HT/PER HT/PER/DIR (UTC) (F) (DEG/KT/KT) (MB) (FT/S) (FT/S/D) UPR LAKE MARION NOT AVBL WINYAH BAY 0745 72 120/ 4 1021.0F LAKE MURRAY 0700 74 190/ 7/ 9 1021.7F ACE BASIN NERRS NOT AVBL FORT PULASKI 0800 74 79 130/ 3/ 4 1021.9F SAPELO ISLAND 0800 68 110/ 1 1021.0F $$ ANZ835-935-AMZ111-154-330-350-352-354-370-450-454-472-280900- ...C-MAN AND BUOY OBSERVATIONS... STATION/POSITION TIME TEMP WIND PRES WAVE SWELL AIR SEA DIR/SP/G HT/PER HT/PER/DIR (UTC) (F) (DEG/KT/KT) (MB) (FT/S) (FT/S/D) BUOY 41004 0750 76 78 100/ 8/ 8 1021.4F 3/ 8 3/ 8 BUOY 41008 0750 77 78 110/ 4/ 6 1021.4F 3/ 7 3/110/ 7 FOLLY BEACH CMAN 0800 76 150/ 3/ 4 1021.8F CAPERS NEARSHORE 0708 76 140/ 4/ 8 1022.1F FRIPP NEARSHORE 0700 77 190/ 4/ 6 1021.4F STATION/POSITION TIME TEMP WIND PRES WAVE SWELL AIR SEA DIR/SP/G HT/PER HT/PER/DIR (UTC) (F) (DEG/KT/KT) (MB) (FT/S) (FT/S/D) 5E ST. MARYS GA 0721 79 N/A 3/ 7 FRYING PAN BUOY 0750 75 75 130/ 4/ 6 1023.4F 3/ 7 3/130/ 7 BUOY 41025 0750 74 77 190/ 8/ 10 1023.9F 3/ 7 3/120/ 7 CAPE LOOKOUT NC 0800 73 150/ 6/ 6 1023.1F BUOY 41002 0750 73 74 80/ 10/ 12 1022.9F 5/ 8 5/110/ 8 BUOY 41010 0720 76 80 80/ 12/ 14 1020.3F ST AUGUSTINE FL 0800 77 79 120/ 10/ 11 1020.9F $$

USA.gov is the U.S. government's official web portal to all federal, state and local government web resources and services.